[[{"header":{"parameterUnit":"m.s-1","parameterCategory":1,"la1":30.2991,"la2":30.254,"lo1":-89.0895,"lo2":-89.0444,"dy":0.0017,"dx":0.0017,"nx":28,"ny":28,"refTime":"2024-04-20T21:00:00:Z","depth":0,"parameterNumber":2,"parameterNumberName":"U-component_of_WINDS"},"data":[0,0,0,0,0,0,0,0,0,0,0,0,0,0,0,0,0,0,0,0,0,0,0,0,0,0,0,0,0,0,0,0,0,0,0,0,0,0,0,0,0,0,0,0,0,0,0,0,0,0,0,0,0,0,0,0,0,0,-0.473,-0.4729,0,-0.4654,-0.4653,-0.4652,-0.4619,-0.4619,-0.4619,-0.4619,-0.4538,-0.4535,-0.4533,0,0,0,0,0,0,0,0,0,0,0,0,0,-0.484,-0.4838,-0.473,-0.4729,-0.4728,-0.4654,-0.4653,-0.4652,-0.4619,-0.4619,-0.4619,-0.4619,-0.4538,-0.4536,-0.4533,0,0,0,0,0,0,0,0,0,0,0,0,0,-0.4781,-0.4838,-0.473,-0.4703,-0.4699,-0.4654,-0.4653,-0.4652,-0.4619,-0.4619,-0.4619,-0.4619,-0.4539,-0.4536,-0.4533,-0.4508,0,0,-0.4522,-0.4521,0,0,0,0,0,0,0,0,-0.4784,-0.4777,-0.4708,-0.4704,-0.4701,-0.4646,-0.4662,-0.4603,-0.4619,-0.4649,-0.4619,-0.4619,-0.4573,-0.4567,-0.4552,-0.4504,-0.4501,-0.4522,-0.452,-0.4518,-0.4517,0,0,0,0,0,0,0,-0.4789,-0.478,-0.47,-0.4707,-0.4702,-0.4692,-0.4684,-0.4651,-0.4611,-0.4647,-0.4644,-0.4636,-0.4571,-0.4556,-0.455,-0.4499,-0.4522,-0.4519,-0.4517,-0.4515,-0.4424,-0.4423,0,0,0,0,0,0,-0.4798,-0.4784,-0.4702,-0.4697,-0.4744,-0.469,-0.4681,-0.4663,-0.4611,-0.4604,-0.4636,-0.4634,-0.4561,-0.4554,-0.4547,-0.4513,-0.4518,-0.4515,-0.4513,-0.4424,-0.4424,-0.4423,0,0,0,0,0,0,-0.48,-0.4791,-0.4705,-0.474,-0.4728,-0.4688,-0.4669,-0.4662,-0.4646,-0.4603,-0.4595,-0.4627,-0.4561,-0.4552,-0.4517,-0.451,-0.4514,-0.451,-0.4425,-0.4424,-0.4423,-0.4446,0,0,0,0,0,0,-0.4804,-0.4792,-0.4784,-0.474,-0.4726,-0.4679,-0.4668,-0.466,-0.4641,-0.4638,-0.4593,-0.4586,-0.4561,-0.4523,-0.4514,-0.4505,-0.4508,-0.4425,-0.4424,-0.4424,-0.4445,-0.4446,-0.4446,0,0,0,0,0,-0.4808,-0.4793,-0.4784,-0.4774,-0.4716,-0.4678,-0.467,-0.4643,-0.464,-0.463,-0.4602,-0.4587,-0.4512,-0.452,-0.4509,-0.4499,-0.4425,-0.4424,-0.4424,-0.4445,-0.4446,-0.4446,0,0,0,0,0,0,-0.4836,-0.4787,-0.4776,-0.4747,-0.4717,-0.4673,-0.466,-0.4645,-0.4614,-0.4613,-0.4579,-0.4569,-0.4537,-0.4515,-0.4524,-0.4471,-0.4467,-0.4464,-0.4487,-0.4487,-0.4488,-0.4493,-0.4505,0,0,0,0,0,-0.4839,-0.4815,-0.4772,-0.475,-0.4736,-0.4701,-0.4683,-0.4665,-0.4632,-0.4619,-0.4588,-0.4556,-0.4524,-0.4505,-0.4474,-0.4442,-0.443,-0.443,-0.443,-0.4431,-0.4428,-0.4407,-0.4405,-0.442,-0.442,-0.442,0,0,-0.4845,-0.4815,-0.4801,-0.4755,-0.473,-0.4703,-0.469,-0.4663,-0.4642,-0.4614,-0.458,-0.4556,-0.4517,-0.4483,-0.4467,-0.4464,-0.4421,-0.443,-0.443,-0.4427,-0.4406,-0.4404,-0.4403,-0.442,-0.442,-0.442,0,0,-0.4842,-0.4817,-0.4796,-0.477,-0.4732,-0.4708,-0.4703,-0.466,-0.4644,-0.4609,-0.4586,-0.456,-0.4508,-0.448,-0.446,-0.4443,-0.4427,-0.4434,-0.4436,-0.4415,-0.4414,-0.4413,-0.4405,-0.4402,-0.4432,-0.4432,-0.4432,0,-0.4853,-0.4814,-0.4786,-0.4759,-0.4738,-0.4713,-0.4689,-0.4665,-0.4618,-0.4604,-0.4601,-0.4533,-0.4505,-0.4463,-0.4459,-0.4444,-0.4434,-0.4439,-0.4417,-0.4415,-0.4413,-0.4405,-0.4403,-0.4433,-0.4432,-0.4432,-0.4432,0,-0.4829,-0.4801,-0.4788,-0.4744,-0.4722,-0.4697,-0.4663,-0.4643,-0.4626,-0.4601,-0.4564,-0.453,-0.449,-0.4479,-0.4462,-0.4433,-0.4432,-0.4424,-0.4419,-0.4414,-0.4405,-0.4402,-0.4434,-0.4434,-0.4433,-0.4433,0,0,-0.4842,-0.4782,-0.4777,-0.4756,-0.4711,-0.4688,-0.4661,-0.4623,-0.4606,-0.4574,-0.4548,-0.4503,-0.4494,-0.447,-0.4449,-0.4432,-0.4418,-0.4425,-0.4423,-0.4423,-0.4381,-0.4387,-0.4384,-0.4407,-0.4406,-0.4406,-0.4384,0,-0.4832,-0.4783,-0.4756,-0.4717,-0.469,-0.4664,-0.4639,-0.4607,-0.4583,-0.4555,-0.4527,-0.4496,-0.4487,-0.4472,-0.4454,-0.4424,-0.4408,-0.4425,-0.438,-0.4379,-0.439,-0.438,-0.4386,-0.4368,-0.438,-0.438,-0.4379,0,-0.4813,-0.4782,-0.4741,-0.4697,-0.4684,-0.4663,-0.4625,-0.4599,-0.4561,-0.4544,-0.4517,-0.4496,-0.4463,-0.4461,-0.4414,-0.4425,-0.4405,-0.4387,-0.4386,-0.4379,-0.4378,-0.4372,-0.4361,-0.4358,-0.4374,-0.4375,-0.4375,0,-0.4825,-0.4773,-0.4741,-0.4723,-0.4672,-0.4657,-0.4634,-0.4597,-0.4575,-0.454,-0.4525,-0.4487,-0.4466,-0.4436,-0.4404,-0.4406,-0.4359,-0.4355,-0.4342,-0.4343,-0.4333,-0.4333,-0.4317,-0.4322,-0.4322,-0.4322,-0.4322,0,-0.4815,-0.4791,-0.4745,-0.4725,-0.4696,-0.4664,-0.4635,-0.461,-0.4576,-0.4549,-0.4524,-0.4499,-0.4459,-0.4428,-0.4402,-0.4365,-0.4356,-0.434,-0.4333,-0.4342,-0.4343,-0.4327,-0.4327,-0.4322,-0.4322,-0.4322,-0.4322,0,-0.4824,-0.4792,-0.4755,-0.4709,-0.4696,-0.4677,-0.4636,-0.4614,-0.4588,-0.4554,-0.4544,-0.4502,-0.4464,-0.4429,-0.4379,-0.4361,-0.4323,-0.4315,-0.4336,-0.4332,-0.432,-0.4321,-0.4292,-0.4285,-0.4297,-0.4296,-0.4296,0,-0.4819,-0.48,-0.4751,-0.4731,-0.471,-0.4679,-0.4656,-0.4622,-0.4599,-0.4553,-0.4536,-0.4497,-0.4463,-0.4403,-0.4367,-0.4327,-0.4317,-0.4309,-0.4311,-0.4319,-0.4314,-0.4315,-0.4312,-0.4309,-0.4309,-0.4309,-0.4309,0,-0.4814,-0.4799,-0.4768,-0.4731,-0.4704,-0.4673,-0.464,-0.4625,-0.4585,-0.456,-0.4521,-0.4495,-0.4442,-0.4402,-0.4358,-0.4332,-0.4313,-0.4309,-0.4304,-0.4311,-0.4323,-0.4314,-0.4335,-0.431,-0.431,-0.431,-0.431,-0.431,-0.4815,-0.4795,-0.4757,-0.4722,-0.4694,-0.4664,-0.4641,-0.4611,-0.4579,-0.4534,-0.4516,-0.4475,-0.4435,-0.4373,-0.4347,-0.4313,-0.431,-0.4302,-0.43,-0.4298,-0.4299,-0.433,-0.4305,-0.4305,-0.4305,-0.4305,-0.4305,0,-0.4807,-0.478,-0.4749,-0.4704,-0.4676,-0.4662,-0.4624,-0.4601,-0.4566,-0.4531,-0.4498,-0.4451,-0.4411,-0.4371,-0.4329,-0.4309,-0.4299,-0.4299,-0.4299,-0.4293,-0.4306,-0.4314,-0.4307,-0.4307,-0.4307,-0.4307,-0.4307,-0.4307,-0.4799,-0.4764,-0.4744,-0.4694,-0.4667,-0.4628,-0.4608,-0.4578,-0.455,-0.4499,-0.4466,-0.4441,-0.4402,-0.4356,-0.4317,-0.4306,-0.4291,-0.4293,-0.4279,-0.4292,-0.4292,-0.4292,-0.43,-0.429,-0.429,-0.4268,-0.4268,-0.4268]},{"header":{"parameterUnit":"m.s-1","parameterCategory":1,"la1":30.2991,"la2":30.254,"lo1":-89.0895,"lo2":-89.0444,"dy":0.0017,"dx":0.0017,"nx":28,"ny":28,"refTime":"2024-04-20T21:00:00:Z","depth":0,"parameterNumber":3,"parameterNumberName":"V-component_of_WINDS"},"data":[0,0,0,0,0,0,0,0,0,0,0,0,0,0,0,0,0,0,0,0,0,0,0,0,0,0,0,0,0,0,0,0,0,0,0,0,0,0,0,0,0,0,0,0,0,0,0,0,0,0,0,0,0,0,0,0,0,0,-2.447,-2.4472,0,-2.4582,-2.4583,-2.4584,-2.4696,-2.4698,-2.4699,-2.4701,-2.4807,-2.4808,-2.481,0,0,0,0,0,0,0,0,0,0,0,0,0,-2.4349,-2.435,-2.447,-2.4472,-2.4473,-2.4581,-2.4583,-2.4584,-2.4696,-2.4698,-2.47,-2.4701,-2.4806,-2.4808,-2.481,0,0,0,0,0,0,0,0,0,0,0,0,0,-2.4424,-2.4351,-2.447,-2.4542,-2.455,-2.4581,-2.4583,-2.4585,-2.4696,-2.4698,-2.47,-2.4702,-2.4806,-2.4808,-2.481,-2.4777,0,0,-2.4816,-2.4817,0,0,0,0,0,0,0,0,-2.442,-2.4429,-2.453,-2.4537,-2.4546,-2.4628,-2.4579,-2.4649,-2.4695,-2.464,-2.4701,-2.4703,-2.4745,-2.4752,-2.4768,-2.4782,-2.4787,-2.4817,-2.4818,-2.4819,-2.4819,0,0,0,0,0,0,0,-2.4415,-2.4425,-2.4514,-2.4531,-2.4541,-2.4567,-2.458,-2.4593,-2.4678,-2.4645,-2.4653,-2.4665,-2.4749,-2.4765,-2.4771,-2.4788,-2.4817,-2.4818,-2.482,-2.4821,-2.478,-2.4778,0,0,0,0,0,0,-2.4399,-2.4419,-2.4511,-2.4518,-2.4487,-2.4567,-2.4582,-2.4599,-2.4678,-2.4693,-2.4663,-2.467,-2.4761,-2.4768,-2.4775,-2.4741,-2.4819,-2.4821,-2.4822,-2.4783,-2.478,-2.4777,0,0,0,0,0,0,-2.4396,-2.4406,-2.4506,-2.4471,-2.4486,-2.4567,-2.4585,-2.46,-2.4616,-2.4692,-2.4707,-2.4664,-2.4763,-2.4772,-2.4776,-2.4746,-2.4822,-2.4824,-2.4786,-2.4782,-2.4779,-2.4671,0,0,0,0,0,0,-2.4392,-2.4405,-2.4394,-2.447,-2.4487,-2.4506,-2.4583,-2.46,-2.462,-2.463,-2.4697,-2.471,-2.4765,-2.4772,-2.4778,-2.475,-2.4825,-2.4788,-2.4784,-2.478,-2.4678,-2.4665,-2.4653,0,0,0,0,0,-2.4388,-2.4358,-2.4393,-2.4403,-2.4476,-2.4505,-2.4514,-2.458,-2.4617,-2.4606,-2.4656,-2.4708,-2.4749,-2.4772,-2.4779,-2.4751,-2.4791,-2.4785,-2.478,-2.4683,-2.4667,-2.4654,0,0,0,0,0,0,-2.4273,-2.4369,-2.4409,-2.4403,-2.4445,-2.4524,-2.4511,-2.4561,-2.4592,-2.4599,-2.4678,-2.4692,-2.4686,-2.472,-2.4744,-2.4724,-2.4777,-2.4773,-2.4701,-2.4686,-2.4674,-2.4664,-2.4827,0,0,0,0,0,-2.4248,-2.4265,-2.4348,-2.4334,-2.4354,-2.4429,-2.4444,-2.4492,-2.4537,-2.4555,-2.4604,-2.4644,-2.4667,-2.4679,-2.4704,-2.4685,-2.47,-2.4669,-2.4657,-2.4647,-2.4641,-2.4632,-2.4619,-2.476,-2.476,-2.476,0,0,-2.4194,-2.4249,-2.4254,-2.4313,-2.4351,-2.4365,-2.4443,-2.4454,-2.4465,-2.4556,-2.4563,-2.4601,-2.4651,-2.4643,-2.4642,-2.467,-2.4606,-2.464,-2.4631,-2.4631,-2.4625,-2.4611,-2.4599,-2.4757,-2.4757,-2.4758,0,0,-2.4103,-2.4148,-2.4141,-2.4179,-2.4237,-2.4288,-2.4286,-2.4358,-2.4387,-2.4396,-2.4465,-2.4478,-2.4515,-2.4547,-2.4568,-2.4493,-2.4541,-2.4499,-2.4432,-2.4423,-2.4412,-2.4402,-2.4372,-2.4361,-2.4494,-2.4493,-2.4493,0,-2.4028,-2.4054,-2.4131,-2.4139,-2.4161,-2.4249,-2.4241,-2.4274,-2.4335,-2.4348,-2.4381,-2.4429,-2.4469,-2.4469,-2.4451,-2.4467,-2.4465,-2.4489,-2.4408,-2.4399,-2.4391,-2.4363,-2.4352,-2.4488,-2.4488,-2.4489,-2.4489,0,-2.3958,-2.3975,-2.3963,-2.4023,-2.4045,-2.4045,-2.412,-2.4133,-2.418,-2.4227,-2.4234,-2.4286,-2.4322,-2.4327,-2.4371,-2.4333,-2.4349,-2.4394,-2.4448,-2.437,-2.4345,-2.4336,-2.4479,-2.4481,-2.4483,-2.4485,0,0,-2.3793,-2.3899,-2.3893,-2.3921,-2.3993,-2.4006,-2.4011,-2.4049,-2.4057,-2.4098,-2.4101,-2.4132,-2.4174,-2.4199,-2.4248,-2.424,-2.4174,-2.4286,-2.4289,-2.426,-2.4132,-2.4095,-2.4081,-2.4209,-2.4207,-2.4206,-2.4127,0,-2.3711,-2.3726,-2.3796,-2.3789,-2.3804,-2.3889,-2.3893,-2.3936,-2.398,-2.3998,-2.4047,-2.4066,-2.4123,-2.4137,-2.4134,-2.4183,-2.4149,-2.419,-2.4209,-2.4209,-2.4189,-2.4069,-2.403,-2.3952,-2.4118,-2.4116,-2.4115,0,-2.3617,-2.3655,-2.3649,-2.3722,-2.3731,-2.3733,-2.3774,-2.3792,-2.3842,-2.3875,-2.3904,-2.3961,-2.3968,-2.4023,-2.4032,-2.4058,-2.4071,-2.4096,-2.4095,-2.4095,-2.4154,-2.4062,-2.3929,-2.3916,-2.4101,-2.4102,-2.4103,0,-2.3493,-2.3543,-2.3546,-2.3568,-2.3654,-2.3653,-2.3688,-2.3742,-2.376,-2.3796,-2.3809,-2.3844,-2.3861,-2.3886,-2.3951,-2.3985,-2.3951,-2.4012,-2.3975,-2.3973,-2.396,-2.3959,-2.3823,-2.3975,-2.3975,-2.3976,-2.3976,0,-2.3392,-2.3384,-2.3492,-2.3493,-2.3487,-2.3568,-2.3559,-2.3602,-2.365,-2.3659,-2.3735,-2.3742,-2.3829,-2.3845,-2.3895,-2.3893,-2.3902,-2.3926,-2.3939,-2.3917,-2.3913,-2.3923,-2.3928,-2.3973,-2.3973,-2.3974,-2.3974,0,-2.325,-2.3323,-2.3331,-2.3413,-2.3434,-2.3425,-2.3494,-2.3497,-2.3549,-2.356,-2.3567,-2.3645,-2.3668,-2.3737,-2.3776,-2.381,-2.3792,-2.3819,-2.3775,-2.3782,-2.3741,-2.3742,-2.3602,-2.3586,-2.3752,-2.375,-2.3749,0,-2.3179,-2.3176,-2.3258,-2.3272,-2.3305,-2.3325,-2.3345,-2.3426,-2.3444,-2.3502,-2.3498,-2.3528,-2.3556,-2.3588,-2.3647,-2.3678,-2.3703,-2.3653,-2.3708,-2.3686,-2.3698,-2.3696,-2.3694,-2.3638,-2.3636,-2.3634,-2.3633,0,-2.3043,-2.308,-2.3108,-2.3148,-2.3172,-2.3207,-2.3246,-2.3252,-2.3342,-2.3358,-2.3384,-2.3406,-2.3448,-2.3476,-2.3516,-2.355,-2.3604,-2.3616,-2.3609,-2.3583,-2.3557,-2.3567,-2.3737,-2.3617,-2.3619,-2.362,-2.3621,-2.3622,-2.2932,-2.2933,-2.2991,-2.302,-2.3059,-2.3095,-2.3102,-2.3155,-2.318,-2.3222,-2.3268,-2.3288,-2.334,-2.34,-2.3431,-2.3446,-2.3475,-2.3465,-2.3462,-2.3457,-2.3445,-2.3559,-2.3454,-2.3455,-2.3455,-2.3456,-2.3456,0,-2.2797,-2.284,-2.2866,-2.292,-2.2942,-2.2998,-2.3044,-2.3058,-2.3076,-2.3121,-2.3148,-2.3177,-2.3205,-2.3268,-2.3301,-2.3301,-2.3327,-2.3306,-2.3304,-2.3311,-2.3419,-2.342,-2.3285,-2.3285,-2.3285,-2.3285,-2.3285,-2.3285,-2.2729,-2.2733,-2.2777,-2.28,-2.2843,-2.2866,-2.2887,-2.2919,-2.2956,-2.2986,-2.3011,-2.3053,-2.3104,-2.3142,-2.3169,-2.3187,-2.3194,-2.3164,-2.3189,-2.3287,-2.3303,-2.3319,-2.332,-2.3166,-2.3166,-2.308,-2.3079,-2.3078]}]]